Starlink 30604

operational
NORAD ID: 58075 Int'l Des: 2023-160 Owner: SPXS Country: US Constellation: starlink
LEOCIRCULAR

Starlink 30604について

説明を読み込み中...

リアルタイム位置

3D地球を読み込み中...

次回通過

高度履歴

Altitude vs Time

uPlot chart will show altitude changes over time

軌道要素

1 58075U 23160A 25353.84499295 .00000779 00000-0 72762-4 0 9996
2 58075 43.0013 154.4195 0000707 279.6678 80.4084 15.02525669120903
Epoch: Dec 19, 2025 • Age: 18 hours

現在のステータス

高度 558.5 km
速度 7.58 km/s
衛星直下点 2.71°N, 143.78°W
打ち上げ日 Oct 18, 2023
運用期間 2.1 years
タイプ internet

技術仕様

分類 Payload
質量 730.00 kg
乾燥質量 700.00 kg
総質量 730.00 kg
長さ 0.30 m
直径 4.10 m
スパン 29.00 m
形状 Box + pan
製造者 SPXS
バスタイプ Starlink V2M
フェーズステータス In Orbit
所有者/国 SPXS/US

大規模コンステレーション

Loading constellations...